Time,TemperatureF,DewpointF,PressureIn,WindDirection,WindDirectionDegrees,WindSpeedMPH,WindSpeedGustMPH,Humidity,HourlyPrecipIn,Conditions,Clouds,dailyrainin,SoftwareType,DateUTC
2013-01-12 00:03:00,45.0,43.0,-100.00,NNE,24,0.0,12.0,95,0.00,,,-99.99,,2013-01-12 05:03:00,
2013-01-12 00:12:00,49.0,46.0,-100.00,North,11,0.0,12.0,97,0.00,,,-99.99,,2013-01-12 05:12:00,
2013-01-12 00:22:00,48.0,45.0,-100.00,NNW,347,0.0,12.0,95,0.00,,,-99.99,,2013-01-12 05:22:00,
2013-01-12 00:32:00,50.0,48.0,-100.00,South,189,0.0,12.0,95,0.00,,,-99.99,,2013-01-12 05:32:00,
2013-01-12 00:42:00,51.0,48.0,-100.00,South,184,1.0,12.0,95,0.00,,,-99.99,,2013-01-12 05:42:00,
2013-01-12 00:52:00,52.0,50.0,-100.00,South,172,1.0,12.0,95,0.00,,,-99.99,,2013-01-12 05:52:00,
2013-01-12 01:02:00,53.0,50.0,-100.00,SSW,206,2.0,12.0,95,0.00,,,-99.99,,2013-01-12 06:02:00,
2013-01-12 01:12:00,53.0,52.0,-100.00,SSW,201,2.0,12.0,97,0.00,,,-99.99,,2013-01-12 06:12:00,
2013-01-12 01:22:00,53.0,52.0,-100.00,South,189,1.0,12.0,97,0.00,,,-99.99,,2013-01-12 06:22:00,
2013-01-12 01:33:00,53.0,52.0,-100.00,SE,145,0.0,12.0,97,0.00,,,-99.99,,2013-01-12 06:33:00,
2013-01-12 01:43:00,53.0,52.0,-100.00,SE,145,0.0,12.0,97,0.00,,,-99.99,,2013-01-12 06:43:00,
2013-01-12 01:52:00,53.0,52.0,-100.00,SE,139,0.0,12.0,97,0.00,,,-99.99,,2013-01-12 06:52:00,
2013-01-12 02:02:00,52.0,50.0,-100.00,SE,145,0.0,12.0,97,0.00,,,-99.99,,2013-01-12 07:02:00,
2013-01-12 02:12:00,51.0,48.0,-100.00,SSE,153,0.0,12.0,97,0.00,,,-99.99,,2013-01-12 07:12:00,
2013-01-12 02:22:00,53.0,52.0,-100.00,South,173,1.0,12.0,97,0.00,,,-99.99,,2013-01-12 07:22:00,
2013-01-12 02:32:00,53.0,50.0,-100.00,South,179,0.0,12.0,95,0.00,,,-99.99,,2013-01-12 07:32:00,
2013-01-12 02:42:00,54.0,52.0,-100.00,SSE,159,1.0,12.0,97,0.00,,,-99.99,,2013-01-12 07:42:00,
2013-01-12 02:52:00,53.0,52.0,-100.00,SSE,149,1.0,1.0,97,0.00,,,-99.99,,2013-01-12 07:52:00,
2013-01-12 03:02:00,54.0,52.0,-100.00,South,179,0.0,1.0,97,0.00,,,-99.99,,2013-01-12 08:02:00,
2013-01-12 03:12:00,52.0,50.0,-100.00,South,169,1.0,1.0,95,0.00,,,-99.99,,2013-01-12 08:12:00,
2013-01-12 03:22:00,52.0,50.0,-100.00,South,187,2.0,2.0,95,0.00,,,-99.99,,2013-01-12 08:22:00,
2013-01-12 03:32:00,53.0,50.0,-100.00,SSE,166,2.0,2.0,95,0.00,,,-99.99,,2013-01-12 08:32:00,
2013-01-12 03:42:00,53.0,50.0,-100.00,SSE,163,1.0,2.0,95,0.00,,,-99.99,,2013-01-12 08:42:00,
2013-01-12 03:52:00,53.0,50.0,-100.00,South,187,1.0,2.0,97,0.00,,,-99.99,,2013-01-12 08:52:00,
2013-01-12 04:02:00,54.0,52.0,-100.00,SSW,201,5.0,8.0,95,0.00,,,-99.99,,2013-01-12 09:02:00,
2013-01-12 04:12:00,53.0,50.0,-100.00,South,177,2.0,8.0,95,0.00,,,-99.99,,2013-01-12 09:12:00,
2013-01-12 04:22:00,53.0,52.0,-100.00,SSW,199,2.0,8.0,97,0.00,,,-99.99,,2013-01-12 09:22:00,
2013-01-12 04:32:00,54.0,52.0,-100.00,SSW,213,1.0,8.0,97,0.00,,,-99.99,,2013-01-12 09:32:00,
2013-01-12 04:42:00,54.0,52.0,-100.00,SSE,153,1.0,8.0,97,0.00,,,-99.99,,2013-01-12 09:42:00,
2013-01-12 04:53:00,54.0,52.0,-100.00,SSE,156,1.0,8.0,97,0.00,,,-99.99,,2013-01-12 09:53:00,
2013-01-12 05:02:00,54.0,52.0,-100.00,SSW,207,1.0,8.0,97,0.00,,,-99.99,,2013-01-12 10:02:00,
2013-01-12 05:12:00,54.0,52.0,-100.00,South,184,1.0,8.0,95,0.00,,,-99.99,,2013-01-12 10:12:00,
2013-01-12 05:22:00,54.0,52.0,-100.00,SSE,155,1.0,8.0,95,0.00,,,-99.99,,2013-01-12 10:22:00,
2013-01-12 05:32:00,54.0,52.0,-100.00,SE,135,1.0,8.0,95,0.00,,,-99.99,,2013-01-12 10:32:00,
2013-01-12 05:42:00,55.0,52.0,-100.00,SSE,163,1.0,8.0,95,0.00,,,-99.99,,2013-01-12 10:42:00,
2013-01-12 05:52:00,55.0,54.0,-100.00,South,170,1.0,8.0,97,0.00,,,-99.99,,2013-01-12 10:52:00,
2013-01-12 06:02:00,54.0,52.0,-100.00,SE,135,0.0,8.0,95,0.00,,,-99.99,,2013-01-12 11:02:00,
2013-01-12 06:12:00,55.0,52.0,-100.00,SSE,159,0.0,8.0,95,0.00,,,-99.99,,2013-01-12 11:12:00,
2013-01-12 06:22:00,56.0,54.0,-100.00,SE,142,0.0,8.0,97,0.00,,,-99.99,,2013-01-12 11:22:00,
2013-01-12 06:33:00,54.0,52.0,-100.00,ESE,103,0.0,8.0,95,0.00,,,-99.99,,2013-01-12 11:33:00,
2013-01-12 06:42:00,55.0,52.0,-100.00,SSW,204,0.0,8.0,95,0.00,,,-99.99,,2013-01-12 11:42:00,
2013-01-12 06:52:00,55.0,52.0,-100.00,SW,224,0.0,8.0,95,0.00,,,-99.99,,2013-01-12 11:52:00,
2013-01-12 07:03:00,55.0,52.0,-100.00,SE,124,0.0,8.0,95,0.00,,,-99.99,,2013-01-12 12:03:00,
2013-01-12 07:12:00,55.0,54.0,-100.00,SSW,208,0.0,8.0,95,0.00,,,-99.99,,2013-01-12 12:12:00,
2013-01-12 07:22:00,56.0,54.0,-100.00,South,172,0.0,8.0,95,0.00,,,-99.99,,2013-01-12 12:22:00,
2013-01-12 07:33:00,55.0,54.0,-100.00,South,179,0.0,8.0,95,0.00,,,-99.99,,2013-01-12 12:33:00,
2013-01-12 07:43:00,56.0,54.0,-100.00,South,176,1.0,8.0,95,0.00,,,-99.99,,2013-01-12 12:43:00,
2013-01-12 07:52:00,55.0,54.0,-100.00,SW,223,2.0,8.0,95,0.00,,,-99.99,,2013-01-12 12:52:00,
2013-01-12 08:02:00,55.0,52.0,-100.00,SSW,197,1.0,8.0,94,0.00,,,-99.99,,2013-01-12 13:02:00,
2013-01-12 08:12:00,55.0,52.0,-100.00,SSW,194,1.0,8.0,93,0.00,,,-99.99,,2013-01-12 13:12:00,
2013-01-12 08:23:00,55.0,52.0,-100.00,SSW,199,1.0,8.0,93,0.00,,,-99.99,,2013-01-12 13:23:00,
2013-01-12 08:33:00,55.0,52.0,-100.00,SSE,160,1.0,8.0,93,0.00,,,-99.99,,2013-01-12 13:33:00,
2013-01-12 08:43:00,56.0,52.0,-100.00,South,179,2.0,8.0,91,0.00,,,-99.99,,2013-01-12 13:43:00,
2013-01-12 08:53:00,56.0,52.0,-100.00,SSW,200,2.0,8.0,91,0.00,,,-99.99,,2013-01-12 13:53:00,
2013-01-12 09:02:00,56.0,52.0,-100.00,SSE,160,1.0,8.0,91,0.00,,,-99.99,,2013-01-12 14:02:00,
2013-01-12 09:12:00,56.0,52.0,-100.00,SE,146,2.0,8.0,91,0.00,,,-99.99,,2013-01-12 14:12:00,
2013-01-12 09:22:00,59.0,55.0,-100.00,SSE,159,1.0,8.0,91,0.00,,,-99.99,,2013-01-12 14:22:00,
2013-01-12 09:33:00,57.0,54.0,-100.00,SSW,192,1.0,8.0,90,0.00,,,-99.99,,2013-01-12 14:33:00,
2013-01-12 09:43:00,57.0,54.0,-100.00,South,182,1.0,8.0,89,0.00,,,-99.99,,2013-01-12 14:43:00,
2013-01-12 09:53:00,57.0,52.0,-100.00,SSE,162,2.0,8.0,89,0.00,,,-99.99,,2013-01-12 14:53:00,
2013-01-12 10:03:00,57.0,52.0,-100.00,SSW,193,1.0,8.0,89,0.00,,,-99.99,,2013-01-12 15:03:00,
2013-01-12 10:13:00,60.0,55.0,-100.00,SSW,193,1.0,8.0,90,0.00,,,-99.99,,2013-01-12 15:13:00,
2013-01-12 10:22:00,57.0,52.0,-100.00,SSW,193,2.0,8.0,88,0.00,,,-99.99,,2013-01-12 15:22:00,
2013-01-12 10:33:00,58.0,54.0,-100.00,WSW,237,5.0,8.0,88,0.00,,,-99.99,,2013-01-12 15:33:00,
2013-01-12 10:43:00,58.0,54.0,-100.00,South,176,2.0,8.0,88,0.00,,,-99.99,,2013-01-12 15:43:00,
2013-01-12 10:53:00,58.0,54.0,-100.00,WSW,245,3.0,8.0,86,0.00,,,-99.99,,2013-01-12 15:53:00,
2013-01-12 11:03:00,58.0,54.0,-100.00,SW,230,2.0,8.0,85,0.00,,,-99.99,,2013-01-12 16:03:00,
2013-01-12 11:12:00,58.0,52.0,-100.00,WSW,238,2.0,8.0,84,0.00,,,-99.99,,2013-01-12 16:12:00,
2013-01-12 11:23:00,59.0,54.0,-100.00,SSW,203,3.0,8.0,84,0.00,,,-99.99,,2013-01-12 16:23:00,
2013-01-12 11:33:00,62.0,55.0,-100.00,SW,235,5.0,8.0,85,0.00,,,-99.99,,2013-01-12 16:33:00,
2013-01-12 11:43:00,61.0,55.0,-100.00,WSW,247,7.0,10.0,85,0.00,,,-99.99,,2013-01-12 16:43:00,
2013-01-12 11:53:00,59.0,52.0,-100.00,WSW,258,6.0,10.0,82,0.00,,,-99.99,,2013-01-12 16:53:00,
2013-01-12 12:02:00,59.0,52.0,-100.00,SSW,211,4.0,10.0,82,0.00,,,-99.99,,2013-01-12 17:02:00,
2013-01-12 12:12:00,59.0,52.0,-100.00,West,265,6.0,10.0,81,0.00,,,-99.99,,2013-01-12 17:12:00,
2013-01-12 12:23:00,60.0,54.0,-100.00,WSW,247,9.0,12.0,81,0.00,,,-99.99,,2013-01-12 17:23:00,
2013-01-12 12:33:00,60.0,52.0,-100.00,WSW,255,4.0,12.0,80,0.00,,,-99.99,,2013-01-12 17:33:00,
2013-01-12 12:43:00,60.0,52.0,-100.00,SW,224,5.0,12.0,78,0.00,,,-99.99,,2013-01-12 17:43:00,
2013-01-12 12:53:00,61.0,54.0,-100.00,WSW,240,6.0,12.0,78,0.00,,,-99.99,,2013-01-12 17:53:00,
2013-01-12 13:03:00,62.0,54.0,-100.00,WSW,249,6.0,12.0,77,0.00,,,-99.99,,2013-01-12 18:03:00,
2013-01-12 13:12:00,62.0,54.0,-100.00,WSW,238,4.0,12.0,77,0.00,,,-99.99,,2013-01-12 18:12:00,
2013-01-12 13:23:00,62.0,54.0,-100.00,SW,232,4.0,12.0,76,0.00,,,-99.99,,2013-01-12 18:23:00,
2013-01-12 13:33:00,61.0,52.0,-100.00,WSW,238,5.0,12.0,75,0.00,,,-99.99,,2013-01-12 18:33:00,
2013-01-12 13:43:00,64.0,55.0,-100.00,WSW,240,4.0,12.0,76,0.00,,,-99.99,,2013-01-12 18:43:00,
2013-01-12 13:52:00,62.0,54.0,-100.00,SW,217,4.0,12.0,75,0.00,,,-99.99,,2013-01-12 18:52:00,
2013-01-12 14:03:00,64.0,55.0,-100.00,WSW,244,6.0,12.0,75,0.00,,,-99.99,,2013-01-12 19:03:00,
2013-01-12 14:12:00,62.0,54.0,-100.00,SSW,213,5.0,12.0,75,0.00,,,-99.99,,2013-01-12 19:12:00,
2013-01-12 14:23:00,62.0,52.0,-100.00,SW,235,3.0,12.0,73,0.00,,,-99.99,,2013-01-12 19:23:00,
2013-01-12 14:33:00,62.0,52.0,-100.00,SSW,210,3.0,12.0,73,0.00,,,-99.99,,2013-01-12 19:33:00,
2013-01-12 14:43:00,64.0,54.0,-100.00,SSW,200,7.0,12.0,73,0.00,,,-99.99,,2013-01-12 19:43:00,
2013-01-12 14:52:00,62.0,52.0,-100.00,SSW,208,6.0,12.0,73,0.00,,,-99.99,,2013-01-12 19:52:00,
2013-01-12 15:03:00,62.0,54.0,-100.00,SSW,196,6.0,12.0,75,0.00,,,-99.99,,2013-01-12 20:03:00,
2013-01-12 15:13:00,62.0,54.0,-100.00,SSW,208,5.0,12.0,75,0.00,,,-99.99,,2013-01-12 20:13:00,
2013-01-12 15:22:00,62.0,54.0,-100.00,South,182,4.0,12.0,76,0.00,,,-99.99,,2013-01-12 20:22:00,
2013-01-12 15:33:00,64.0,55.0,-100.00,SW,217,4.0,12.0,78,0.00,,,-99.99,,2013-01-12 20:33:00,
2013-01-12 15:42:00,64.0,55.0,-100.00,SW,216,3.0,12.0,78,0.00,,,-99.99,,2013-01-12 20:42:00,
2013-01-12 15:53:00,64.0,55.0,-100.00,SW,223,6.0,12.0,78,0.00,,,-99.99,,2013-01-12 20:53:00,
2013-01-12 16:03:00,64.0,55.0,-100.00,SSW,208,4.0,12.0,78,0.00,,,-99.99,,2013-01-12 21:03:00,
2013-01-12 16:12:00,64.0,55.0,-100.00,SW,214,4.0,12.0,78,0.00,,,-99.99,,2013-01-12 21:12:00,
2013-01-12 16:22:00,64.0,55.0,-100.00,South,177,4.0,12.0,78,0.00,,,-99.99,,2013-01-12 21:22:00,
2013-01-12 16:33:00,64.0,55.0,-100.00,SSW,199,3.0,12.0,78,0.00,,,-99.99,,2013-01-12 21:33:00,
2013-01-12 16:43:00,64.0,55.0,-100.00,South,187,3.0,12.0,78,0.00,,,-99.99,,2013-01-12 21:43:00,
2013-01-12 16:52:00,63.0,55.0,-100.00,SE,135,2.0,12.0,78,0.00,,,-99.99,,2013-01-12 21:52:00,
2013-01-12 17:03:00,63.0,55.0,-100.00,South,169,1.0,12.0,78,0.00,,,-99.99,,2013-01-12 22:03:00,
2013-01-12 17:12:00,63.0,55.0,-100.00,SSE,155,1.0,12.0,78,0.00,,,-99.99,,2013-01-12 22:12:00,
2013-01-12 17:23:00,64.0,57.0,-100.00,South,180,0.0,12.0,80,0.00,,,-99.99,,2013-01-12 22:23:00,
2013-01-12 17:33:00,63.0,55.0,-100.00,South,179,0.0,12.0,81,0.00,,,-99.99,,2013-01-12 22:33:00,
2013-01-12 17:43:00,63.0,55.0,-100.00,SE,146,0.0,12.0,81,0.00,,,-99.99,,2013-01-12 22:43:00,
2013-01-12 17:52:00,62.0,55.0,-100.00,SE,124,0.0,12.0,82,0.00,,,-99.99,,2013-01-12 22:52:00,
2013-01-12 18:03:00,62.0,55.0,-100.00,SE,134,0.0,12.0,82,0.00,,,-99.99,,2013-01-12 23:03:00,
2013-01-12 18:13:00,62.0,55.0,-100.00,SE,141,0.0,12.0,82,0.00,,,-99.99,,2013-01-12 23:13:00,
2013-01-12 18:22:00,61.0,55.0,-100.00,SSW,194,0.0,12.0,85,0.00,,,-99.99,,2013-01-12 23:22:00,
2013-01-12 18:33:00,61.0,55.0,-100.00,SE,131,0.0,12.0,85,0.00,,,-99.99,,2013-01-12 23:33:00,
2013-01-12 18:43:00,60.0,55.0,-100.00,SE,135,0.0,12.0,86,0.00,,,-99.99,,2013-01-12 23:43:00,
2013-01-12 18:53:00,60.0,55.0,-100.00,South,176,0.0,12.0,86,0.00,,,-99.99,,2013-01-12 23:53:00,
2013-01-12 19:03:00,60.0,55.0,-100.00,South,172,0.0,12.0,88,0.00,,,-99.99,,2013-01-13 00:03:00,
2013-01-12 19:12:00,59.0,55.0,-100.00,SSW,197,0.0,12.0,88,0.00,,,-99.99,,2013-01-13 00:12:00,
2013-01-12 19:23:00,59.0,55.0,-100.00,South,179,0.0,12.0,88,0.00,,,-99.99,,2013-01-13 00:23:00,
2013-01-12 19:33:00,58.0,54.0,-100.00,SE,144,0.0,12.0,89,0.00,,,-99.99,,2013-01-13 00:33:00,
2013-01-12 19:43:00,56.0,52.0,-100.00,SE,141,0.0,12.0,89,0.00,,,-99.99,,2013-01-13 00:43:00,
2013-01-12 19:52:00,55.0,52.0,-100.00,ESE,115,0.0,12.0,89,0.00,,,-99.99,,2013-01-13 00:52:00,
2013-01-12 20:03:00,56.0,52.0,-100.00,SE,128,0.0,12.0,89,0.00,,,-99.99,,2013-01-13 01:03:00,
2013-01-12 20:12:00,56.0,52.0,-100.00,SE,124,0.0,12.0,89,0.00,,,-99.99,,2013-01-13 01:12:00,
2013-01-12 20:23:00,56.0,52.0,-100.00,SW,214,0.0,12.0,89,0.00,,,-99.99,,2013-01-13 01:23:00,
2013-01-12 20:33:00,56.0,52.0,-100.00,South,170,0.0,12.0,89,0.00,,,-99.99,,2013-01-13 01:33:00,
2013-01-12 20:43:00,57.0,52.0,-100.00,South,187,0.0,12.0,89,0.00,,,-99.99,,2013-01-13 01:43:00,
2013-01-12 20:52:00,56.0,52.0,-100.00,SSE,151,0.0,12.0,90,0.00,,,-99.99,,2013-01-13 01:52:00,
2013-01-12 21:02:00,56.0,52.0,-100.00,SSE,158,0.0,12.0,90,0.00,,,-99.99,,2013-01-13 02:02:00,
2013-01-12 21:13:00,58.0,54.0,-100.00,ESE,112,0.0,12.0,90,0.00,,,-99.99,,2013-01-13 02:13:00,
2013-01-12 21:22:00,58.0,54.0,-100.00,SE,131,0.0,12.0,89,0.00,,,-99.99,,2013-01-13 02:22:00,
2013-01-12 21:33:00,57.0,52.0,-100.00,NNE,16,0.0,12.0,89,0.00,,,-99.99,,2013-01-13 02:33:00,
2013-01-12 21:43:00,57.0,54.0,-100.00,South,182,0.0,12.0,89,0.00,,,-99.99,,2013-01-13 02:43:00,
2013-01-12 21:52:00,58.0,54.0,-100.00,SE,132,1.0,12.0,89,0.00,,,-99.99,,2013-01-13 02:52:00,
2013-01-12 22:03:00,59.0,54.0,-100.00,SE,144,0.0,12.0,88,0.00,,,-99.99,,2013-01-13 03:03:00,
2013-01-12 22:12:00,60.0,55.0,-100.00,SSE,162,2.0,12.0,89,0.00,,,-99.99,,2013-01-13 03:12:00,
2013-01-12 22:22:00,60.0,55.0,-100.00,SSE,165,1.0,12.0,89,0.00,,,-99.99,,2013-01-13 03:22:00,
2013-01-12 22:33:00,60.0,55.0,-100.00,SSE,153,1.0,12.0,88,0.00,,,-99.99,,2013-01-13 03:33:00,
2013-01-12 22:43:00,60.0,55.0,-100.00,SE,127,0.0,12.0,89,0.00,,,-99.99,,2013-01-13 03:43:00,
2013-01-12 22:52:00,61.0,57.0,-100.00,SSE,166,0.0,12.0,89,0.00,,,-99.99,,2013-01-13 03:52:00,
2013-01-12 23:03:00,60.0,55.0,-100.00,ESE,110,0.0,12.0,89,0.00,,,-99.99,,2013-01-13 04:03:00,
2013-01-12 23:12:00,61.0,57.0,-100.00,SSE,162,0.0,12.0,89,0.00,,,-99.99,,2013-01-13 04:12:00,
2013-01-12 23:22:00,60.0,55.0,-100.00,SSE,156,1.0,12.0,89,0.00,,,-99.99,,2013-01-13 04:22:00,
2013-01-12 23:33:00,60.0,55.0,-100.00,SE,138,0.0,12.0,89,0.00,,,-99.99,,2013-01-13 04:33:00,
2013-01-12 23:43:00,60.0,55.0,-100.00,SE,135,0.0,12.0,89,0.00,,,-99.99,,2013-01-13 04:43:00,
2013-01-12 23:52:00,61.0,57.0,-100.00,SE,141,1.0,12.0,89,0.00,,,-99.99,,2013-01-13 04:52:00,